DW9106 Madrid ES current weather conditions

sailwx.info

Wind from 178 at 3 knots gusting 6

Air temperature 11.7° C
Dewpoint 7.0° C

Last reported at 2014-Nov-26 11:40 UTC.
Time now 2014-Nov-26 12:53 UTC

Location: N 40°23' W 003°38'.
View on Google Maps.

See reports from other nearby stations

  
Tides and Currents Weather Stations Pressure Air Temp Water Temp Dewpoint Dewpoint Depression Visibility Wind Speed Wind Dir Waves Ship Positions
date/time (UTC)wind fromknots sea level pressurealtimeterstation pressurevisibilityair tempwater tempwave heightnotes
2014-Nov-26 11:40 178 3 gusting 6 11.7
2014-Nov-26 11:25 200 1 gusting 8 11.7
2014-Nov-26 11:10 272 1 gusting 6 12.2
2014-Nov-26 10:55 355 1 gusting 7 12.2
2014-Nov-26 10:40 286 1 gusting 4 12.2
2014-Nov-26 10:25 178 2 gusting 6 11.7
2014-Nov-26 10:10 249 1 gusting 8 11.7
2014-Nov-26 09:55 248 3 gusting 7 11.1
2014-Nov-26 09:40 246 2 gusting 8 11.7
2014-Nov-26 09:25 303 2 gusting 6 11.1
2014-Nov-26 09:10 236 1 gusting 6 10.6
2014-Nov-26 08:55 348 1 gusting 6 10.6
2014-Nov-26 08:40 210 0 gusting 3 10.6
2014-Nov-26 08:24 264 1 gusting 7 10.6
2014-Nov-26 08:09 240 0 gusting 6 10.6
2014-Nov-26 07:54 231 1 gusting 6 10.0
2014-Nov-26 07:39 246 1 gusting 6 10.0
2014-Nov-26 07:24 205 1 gusting 5 10.0
2014-Nov-26 07:09 254 0 gusting 6 10.0
2014-Nov-26 06:54 225 0 gusting 5 10.0
2014-Nov-26 06:39 259 1 gusting 7 10.6
2014-Nov-26 06:24 286 1 gusting 4 10.6
2014-Nov-26 06:09 211 2 gusting 6 10.6
2014-Nov-26 05:54 271 2 gusting 5 10.6
2014-Nov-26 05:39 261 1 gusting 5 10.6
2014-Nov-26 05:24 253 0 gusting 6 10.6
2014-Nov-26 05:09 267 10.6
2014-Nov-26 04:54 259 0 gusting 5 10.6
2014-Nov-26 04:39 295 10.6
2014-Nov-26 04:24 273 10.6
2014-Nov-26 04:09 235 10.6
2014-Nov-26 03:54 244 10.6
2014-Nov-26 03:39 262 3 gusting 6 11.1
2014-Nov-26 03:24 250 0 gusting 3 11.1
2014-Nov-26 03:09 250 0 gusting 5 11.1
2014-Nov-26 02:54 236 0 gusting 4 11.1
2014-Nov-26 02:39 244 0 gusting 3 11.1
2014-Nov-26 02:24 244 11.1
2014-Nov-26 02:09 251 11.1
2014-Nov-26 01:54 192 11.1
2014-Nov-26 01:39 230 0 gusting 5 11.1
2014-Nov-26 01:24 223 0 gusting 3 11.1
2014-Nov-26 01:09 244 0 gusting 3 11.1
2014-Nov-26 00:54 202 11.1
2014-Nov-26 00:39 267 11.1
2014-Nov-26 00:24 276 11.1
2014-Nov-26 00:09 273 3 gusting 7 11.1
2014-Nov-25 23:54 279 2 gusting 7 11.1
2014-Nov-25 23:39 281 11.1
2014-Nov-25 23:24 202 0 gusting 4 11.7
2014-Nov-25 23:09 263 11.7
2014-Nov-25 22:54 256 0 gusting 4 11.7
2014-Nov-25 22:39 246 0 gusting 2 11.7
2014-Nov-25 22:24 256 11.7
2014-Nov-25 22:09 261 1 gusting 5 11.7
2014-Nov-25 21:54 260 0 gusting 4 11.7
2014-Nov-25 21:39 261 11.7
2014-Nov-25 21:24 261 11.7
2014-Nov-25 21:09 190 11.7
2014-Nov-25 20:54 196 11.7
2014-Nov-25 20:39 195 11.7
2014-Nov-25 20:24 175 11.7
2014-Nov-25 20:09 174 0 gusting 3 11.7
2014-Nov-25 19:54 178 11.7
2014-Nov-25 19:39 155 0 gusting 3 11.7
2014-Nov-25 19:24 192 0 gusting 2 11.7
2014-Nov-25 19:09 243 11.7
2014-Nov-25 18:53 205 0 gusting 5 11.1
2014-Nov-25 18:38 256 0 gusting 2 11.1
2014-Nov-25 18:23 117 2 gusting 8 11.1
2014-Nov-25 18:08 159 2 gusting 14 11.7
2014-Nov-25 17:53 144 1 gusting 6 13.3
2014-Nov-25 17:38 207 1 gusting 4 13.3
2014-Nov-25 17:23 146 0 gusting 4 13.3
2014-Nov-25 17:08 146 0 gusting 4 12.8
2014-Nov-25 16:53 023 13.3
2014-Nov-25 16:38 197 1 gusting 6 13.9
2014-Nov-25 16:23 215 1 gusting 5 14.4
2014-Nov-25 16:08 118 1 gusting 5 15.0
2014-Nov-25 15:53 178 0 gusting 5 15.0
2014-Nov-25 15:38 142 0 gusting 7 15.0
2014-Nov-25 15:23 136 0 gusting 3 15.6
2014-Nov-25 15:08 189 0 gusting 6 15.6
2014-Nov-25 14:53 121 0 gusting 4 16.1
2014-Nov-25 14:38 173 0 gusting 5 15.0
2014-Nov-25 14:23 123 2 gusting 7 15.0
2014-Nov-25 14:08 133 2 gusting 7 15.6
2014-Nov-25 13:53 185 2 gusting 7 15.6
2014-Nov-25 13:38 148 2 gusting 6 15.6
2014-Nov-25 13:23 186 0 gusting 6 15.6
2014-Nov-25 13:08 137 15.6
2014-Nov-25 12:53 203 15.6
2014-Nov-25 12:38 152 0 gusting 4 15.6
2014-Nov-25 12:23 140 0 gusting 6 15.6
2014-Nov-25 12:08 213 0 gusting 4 16.1
2014-Nov-25 11:53 162 0 gusting 5 15.6
2014-Nov-25 11:38 073 0 gusting 5 15.6
2014-Nov-25 11:23 123 0 gusting 3 15.0
2014-Nov-25 11:08 215 0 gusting 3 15.0
2014-Nov-25 10:53 150 0 gusting 4 14.4
2014-Nov-25 10:38 142 13.9
2014-Nov-25 10:23 109 13.3
2014-Nov-25 10:08 115 13.3
2014-Nov-25 09:53 102 1 gusting 3 13.9
2014-Nov-25 09:38 125 13.3
2014-Nov-25 09:23 090 0 gusting 2 13.3
2014-Nov-25 09:08 069 12.8
2014-Nov-25 08:53 059 11.7
2014-Nov-25 08:37 041 11.1
2014-Nov-25 08:22 040 10.6
2014-Nov-25 08:07 040 10.0
2014-Nov-25 07:52 040 9.4
2014-Nov-25 07:37 040 9.4
2014-Nov-25 07:22 040 9.4
2014-Nov-25 07:07 040 9.4
2014-Nov-25 06:52 040 9.4
2014-Nov-25 05:37 040 10.0
2014-Nov-25 05:22 040 10.0
2014-Nov-25 05:07 040 10.0
2014-Nov-25 04:52 040 10.0
2014-Nov-25 04:37 040 10.0
2014-Nov-25 04:22 040 10.0
2014-Nov-25 04:07 040 10.6
2014-Nov-25 03:52 040 10.6
2014-Nov-25 03:37 040 11.1
2014-Nov-25 03:22 040 11.7
2014-Nov-25 03:07 040 11.7
2014-Nov-25 02:52 040 11.7
2014-Nov-25 02:37 040 11.7
2014-Nov-25 02:22 040 11.7
2014-Nov-25 02:07 040 11.7
2014-Nov-25 01:52 040 11.7
2014-Nov-25 01:37 040 12.2
2014-Nov-25 01:22 040 12.2
2014-Nov-25 01:07 040 12.8
2014-Nov-25 00:52 116 0 gusting 1 12.8
2014-Nov-25 00:37 251 12.8
2014-Nov-25 00:22 251 12.8
2014-Nov-25 00:07 246 12.8
2014-Nov-24 23:52 246 12.8
2014-Nov-24 23:37 246 12.8
2014-Nov-24 23:22 246 12.8
2014-Nov-24 23:07 246 12.8
2014-Nov-24 22:52 246 12.8
2014-Nov-24 22:37 246 12.8
2014-Nov-24 22:22 246 12.8
2014-Nov-24 22:07 246 13.3
2014-Nov-24 21:51 246 13.3
2014-Nov-24 21:36 246 13.9
2014-Nov-24 21:21 246 13.9
2014-Nov-24 21:06 246 13.9
2014-Nov-24 20:51 246 14.4
2014-Nov-24 20:36 246 15.0
2014-Nov-24 20:21 246 15.0
2014-Nov-24 20:06 246 15.6
2014-Nov-24 19:51 246 0 gusting 2 15.6
2014-Nov-24 19:36 223 15.6
2014-Nov-24 19:21 223 15.6
2014-Nov-24 19:06 063 15.6
2014-Nov-24 18:51 063 15.6
2014-Nov-24 18:36 063 15.6
2014-Nov-24 18:21 063 15.6
2014-Nov-24 18:06 063 15.6
2014-Nov-24 17:51 063 16.1
2014-Nov-24 17:36 063 16.1
2014-Nov-24 17:21 063 16.7
2014-Nov-24 17:06 063 16.7
2014-Nov-24 16:51 063 17.2
2014-Nov-24 16:36 063 17.2
2014-Nov-24 16:21 063 17.2
2014-Nov-24 16:06 063 17.8
2014-Nov-24 15:51 063 17.2
2014-Nov-24 15:36 062 17.8
2014-Nov-24 15:21 062 17.8
2014-Nov-24 15:06 062 17.2
2014-Nov-24 14:51 071 2 gusting 4 17.8
2014-Nov-24 14:36 057 17.8
2014-Nov-24 14:21 125 1 gusting 6 17.8
2014-Nov-24 14:06 065 1 gusting 4 17.8
2014-Nov-24 13:51 074 0 gusting 6 17.8
2014-Nov-24 13:36 080 0 gusting 6 17.8
2014-Nov-24 13:21 052 1 gusting 3 17.8
2014-Nov-24 13:06 061 2 gusting 6 17.8
2014-Nov-24 12:51 065 0 gusting 5 17.8
2014-Nov-24 12:36 074 1 gusting 4 17.8
2014-Nov-24 12:21 059 1 gusting 3 17.2
2014-Nov-24 12:06 128 18.3